Location: Chmeln�
(49.6483°N, 14.9871°E)
Time: 06:46:39
(UTC+00:00)

Lacrosse 5 rocket - Pass Details

Date: 24 January 2021
Orbit: 465 x 630 km, 57.0° (Epoch: 06 March)

Event Time Altitude Azimuth Distance (km) Brightness Sun altitude
Exits shadow 03:19:43 14° 112° (ESE) 1,493 4.1 -32.6°
Drops below altitude 10° 03:20:15 10° 113° (ESE) 1,703 4.4 -32.5°
Sets 03:22:22 0° 116° (ESE) 2,559 5.5 -32.1°
